Flag for Dominican Republic Weather past 2 weeks in Puerto Plata, Dominican Republic

Now
75 °F

Passing clouds.


Feels Like: 75 °F
Forecast: 76 / 83 °F
Wind: No wind

Location: Puerto Plata International

Current Time: May 28, 2015 at 1:15:58 AM

Latest Report: May 27, 2015 at 11:00 PM


Visibility: N/A

Pressure: 29.98 "Hg

Humidity: 89%

Dew point: 72 °F

Location of Puerto PlataLocation

Historic Weather in Puerto Plata — Graph

°F

Puerto Plata temperature yesterday

Maximum temperature yesterday: 86 °F (at 10:00 AM)
Minimum temperature yesterday: 72 °F (at 7:00 AM)
Average temperature yesterday: 80 °F

Past Weeks' High & Low Weather Summary

 TemperatureHumidityPressure
High90 °F (May 14, 1:00 PM)100% (May 27, 7:00 AM)30.12 "Hg (May 27, 7:00 AM)
Low72 °F (May 15, 5:00 AM)55% (May 14, 2:00 PM)29.89 "Hg (May 18, 11:00 AM)
Average82 °F77%30.03 "Hg
* Reported May 12 11:00 PM — May 27 11:00 PM, Puerto Plata, Weather by CustomWeather, © 2015

Note: Actual official high and low records may vary slightly from our data, if they occured in-between our weather recording intervals... More about our weather records

Advertising

Puerto Plata weather history for previous 24 hours

 ConditionsComfort  
Time TempWeatherWind HumidityBarometerVisibility
11:00 PM
Wed, May 27
75 °FPassing clouds.No wind89%29.98 "HgN/A
8:00 PM77 °FPassing clouds.No wind89%29.98 "HgN/A
7:00 PM79 °FBroken clouds.6 mph84%29.95 "HgN/A
6:00 PM79 °FBroken clouds.6 mph84%29.95 "HgN/A
5:00 PM81 °FBroken clouds.12 mph74%29.95 "HgN/A
4:00 PM81 °FPartly sunny.12 mph74%29.95 "HgN/A
3:00 PM81 °FPartly sunny.12 mph79%29.98 "HgN/A
2:00 PM82 °FPartly sunny.17 mph74%29.98 "HgN/A
1:00 PM82 °FScattered showers. Partly sunny.17 mph74%29.98 "Hg5 mi
12:00 PM86 °FScattered clouds.12 mph66%29.98 "HgN/A
11:00 AM86 °FScattered clouds.12 mph66%29.98 "HgN/A
10:00 AM86 °FScattered clouds.6 mph62%29.98 "HgN/A
9:00 AM82 °FPassing clouds.6 mph70%29.98 "HgN/A
8:00 AM79 °FPassing clouds.No wind79%29.98 "HgN/A
7:00 AM72 °FPassing clouds.No wind100%29.98 "HgN/A
5:00 AM73 °FPassing clouds.No wind89%29.95 "HgN/A
2:00 AM73 °FPassing clouds.No wind94%29.98 "HgN/A
Weather by CustomWeather, © 2015

See weather overviewHow to use our weather pages